GW1714 Weather Reports


Display with metric or nautical units.
time (UTC)temp
F
wind
direction
speed
MPH
gust
MPH
rain 1hr
in
rain 24hr
in
rain mn
in
humidity
%
barometer
mb
20260508172021 64 170 2.0 4.0 0.00 0.00 0.00 53 1033.9
20260508171518 64 127 2.0 3.0 0.00 0.00 0.00 54 1033.8
20260508171014 63 144 2.0 2.0 0.00 0.00 0.00 53 1034.3
20260508170512 63 71 1.0 1.0 0.00 0.00 0.00 60 1034.2
20260508170009 63 180 0.0 2.0 0.00 0.00 0.00 57 1034.4
20260508165506 62 166 1.0 2.0 0.00 0.00 0.00 57 1034.6
20260508165003 62 180 1.0 4.0 0.00 0.00 0.00 59 1034.4
20260508164459 62 163 2.0 2.0 0.00 0.00 0.00 56 1034.4
20260508163956 63 180 1.0 3.0 0.00 0.00 0.00 56 1034.7
20260508163454 63 82 1.0 2.0 0.00 0.00 0.00 54 1034.9
20260508162949 62 152 3.0 3.0 0.00 0.00 0.00 62 1034.9
20260508162447 62 173 1.0 2.0 0.00 0.00 0.00 60 1035.1
20260508161944 61 160 0.0 2.0 0.00 0.00 0.00 58 1035.2
20260508161441 61 166 0.0 2.0 0.00 0.00 0.00 59 1035.2
20260508160938 61 99 0.0 0.0 0.00 0.00 0.00 59 1035.3
20260508160438 61 147 2.0 2.0 0.00 0.00 0.00 62 1035.3
20260508155933 60 29 3.0 3.0 0.00 0.00 0.00 62 1035.2
20260508155430 60 188 0.0 3.0 0.00 0.00 0.00 61 1035.1
20260508154927 60 180 0.0 2.0 0.00 0.00 0.00 63 1035.1
20260508154424 59 156 2.0 3.0 0.00 0.00 0.00 62 1035.3
20260508153921 59 165 0.0 2.0 0.00 0.00 0.00 61 1035.5
20260508153418 59 187 0.0 2.0 0.00 0.00 0.00 62 1035.6
20260508152914 59 28 2.0 5.0 0.00 0.00 0.00 62 1035.3
20260508152411 58 154 0.0 0.0 0.00 0.00 0.00 63 1035.7
20260508151907 59 154 0.0 2.0 0.00 0.00 0.00 65 1035.7
20260508151404 58 180 0.0 0.0 0.00 0.00 0.00 66 1035.9
20260508150900 58 173 0.0 0.0 0.00 0.00 0.00 64 1035.4
20260508150357 57 79 2.0 2.0 0.00 0.00 0.00 60 1035.7
20260508145853 57 180 0.0 1.0 0.00 0.00 0.00 67 1035.7
20260508145349 57 180 0.0 1.0 0.00 0.00 0.00 70 1035.5
20260508144846 57 172 0.0 0.0 0.00 0.00 0.00 74 1035.6
20260508144345 57 126 0.0 0.0 0.00 0.00 0.00 78 1035.5
20260508143842 56 180 0.0 0.0 0.00 0.00 0.00 78 1035.6
20260508143339 56 106 0.0 2.0 0.00 0.00 0.00 77 1035.6
20260508142835 56 154 0.0 0.0 0.00 0.00 0.00 81 1035.6
20260508142332 55 165 0.0 1.0 0.00 0.00 0.00 81 1035.9
20260508141829 55 173 0.0 1.0 0.00 0.00 0.00 83 1035.9
20260508141326 55 157 1.0 1.0 0.00 0.00 0.00 86 1035.9
20260508140823 54 166 0.0 2.0 0.00 0.00 0.00 87 1035.8
20260508140320 54 160 1.0 3.0 0.00 0.00 0.00 89 1036.0
20260508135816 54 168 0.0 2.0 0.00 0.00 0.00 88 1036.3
20260508135312 54 157 0.0 3.0 0.00 0.00 0.00 86 1035.9
20260508134808 54 172 0.0 1.0 0.00 0.00 0.00 85 1035.9
20260508134305 54 99 0.0 0.0 0.00 0.00 0.00 86 1035.9
20260508133802 54 99 0.0 1.0 0.00 0.00 0.00 86 1035.8
20260508133300 53 23 0.0 1.0 0.00 0.00 0.00 86 1035.6
20260508132757 53 117 0.0 2.0 0.00 0.00 0.00 87 1035.9
20260508132254 53 90 0.0 0.0 0.00 0.00 0.00 87 1035.7
20260508131750 52 83 1.0 1.0 0.00 0.00 0.00 87 1035.7
20260508131246 52 114 0.0 0.0 0.00 0.00 0.00 87 1035.7
20260508130743 52 114 0.0 0.0 0.00 0.00 0.00 87 1035.8
20260508130241 52 126 0.0 1.0 0.00 0.00 0.00 87 1035.8
20260508125736 51 6 0.0 1.0 0.00 0.00 0.00 88 1035.8
20260508125232 51 0 2.0 2.0 0.00 0.00 0.00 89 1035.8
20260508124731 51 35 0.0 2.0 0.00 0.00 0.00 89 1035.8
20260508124227 50 0 2.0 2.0 0.00 0.00 0.00 88 1035.9
20260508123726 50 29 0.0 2.0 0.00 0.00 0.00 88 1035.8
20260508123224 50 7 0.0 2.0 0.00 0.00 0.00 90 1035.9
20260508122719 49 20 0.0 1.0 0.00 0.00 0.00 90 1035.7
20260508122216 48 23 0.0 1.0 0.00 0.00 0.00 92 1035.6
20260508121714 48 0 0.0 2.0 0.00 0.00 0.00 94 1035.8
20260508121213 47 12 0.0 2.0 0.00 0.00 0.00 95 1035.7
20260508120709 47 7 0.0 0.0 0.00 0.00 0.00 96 1035.5
20260508120208 47 29 0.0 1.0 0.00 0.00 0.00 96 1035.5
20260508115705 47 114 1.0 2.0 0.00 0.00 0.00 96 1035.3
20260508115202 46 120 0.0 0.0 0.00 0.00 0.00 96 1035.2
20260508114658 46 135 0.0 0.0 0.00 0.00 0.00 96 1035.2
20260508114155 47 135 2.0 2.0 0.00 0.00 0.00 96 1035.1
20260508113652 46 106 0.0 1.0 0.00 0.00 0.00 95 1035.2
20260508113150 47 23 0.0 1.0 0.00 0.00 0.00 95 1034.9
20260508112646 47 157 0.0 2.0 0.00 0.00 0.00 95 1034.9
20260508112143 47 81 0.0 0.0 0.00 0.00 0.00 95 1034.5
20260508111639 47 99 0.0 1.0 0.00 0.00 0.00 95 1034.6
20260508111137 47 29 0.0 0.0 0.00 0.00 0.00 95 1034.6
20260508110629 47 20 0.0 0.0 0.00 0.00 0.00 95 1034.6
20260508110125 47 14 0.0 1.0 0.00 0.00 0.00 95 1034.5
20260508105620 47 66 0.0 1.0 0.00 0.00 0.00 96 1034.6
20260508105117 47 7 0.0 0.0 0.00 0.00 0.00 96 1034.4
20260508104615 46 7 0.0 1.0 0.00 0.00 0.00 96 1034.5
20260508104111 47 15 0.0 1.0 0.00 0.00 0.00 95 1033.9
20260508103608 47 352 0.0 2.0 0.00 0.00 0.00 95 1034.3
20260508103106 47 60 1.0 2.0 0.00 0.00 0.00 95 1034.0
20260508102603 47 29 0.0 2.0 0.00 0.00 0.00 95 1034.0
20260508102101 47 6 1.0 2.0 0.00 0.00 0.00 95 1033.9
20260508101558 47 346 2.0 2.0 0.00 0.00 0.00 95 1034.2
20260508101055 47 0 0.0 2.0 0.00 0.00 0.00 95 1034.0
20260508100553 47 0 2.0 3.0 0.00 0.00 0.00 95 1033.8
20260508100050 47 351 2.0 2.0 0.00 0.00 0.00 95 1033.8
20260508095547 47 0 2.0 2.0 0.00 0.00 0.00 96 1033.9
20260508095043 47 342 0.0 3.0 0.00 0.00 0.00 96 1033.9
20260508094541 47 7 0.0 1.0 0.00 0.00 0.00 96 1033.7
20260508094038 47 0 1.0 2.0 0.00 0.00 0.00 96 1033.7
20260508093534 47 355 2.0 2.0 0.00 0.00 0.00 96 1033.7
20260508093032 48 354 1.0 2.0 0.00 0.00 0.00 96 1033.7
20260508092529 48 352 0.0 2.0 0.00 0.00 0.00 96 1033.6
20260508092029 48 0 0.0 2.0 0.00 0.00 0.00 96 1033.7
20260508091525 48 0 2.0 3.0 0.00 0.00 0.00 96 1033.8
20260508091022 48 356 2.0 3.0 0.00 0.00 0.00 96 1033.8
20260508090520 48 355 2.0 3.0 0.00 0.00 0.00 96 1033.7
20260508090016 48 0 1.0 3.0 0.00 0.00 0.00 95 1033.7
20260508085513 49 353 2.0 2.0 0.00 0.00 0.00 94 1033.8
20260508085010 49 356 2.0 2.0 0.00 0.00 0.00 94 1033.9
20260508084507 49 0 1.0 1.0 0.00 0.00 0.00 93 1033.6
20260508084004 49 0 1.0 2.0 0.00 0.00 0.00 93 1033.8
20260508083501 49 0 2.0 3.0 0.00 0.00 0.00 93 1033.7
20260508082956 49 356 2.0 2.0 0.00 0.00 0.00 92 1033.4
20260508082453 49 6 1.0 2.0 0.00 0.00 0.00 92 1033.6
20260508081951 49 11 1.0 2.0 0.00 0.00 0.00 93 1033.5
20260508081448 49 8 0.0 0.0 0.00 0.00 0.00 93 1033.7
20260508080944 49 7 0.0 1.0 0.00 0.00 0.00 93 1033.5
20260508080443 50 0 0.0 1.0 0.00 0.00 0.00 93 1033.8
20260508075939 50 29 0.0 2.0 0.00 0.00 0.00 93 1033.6
20260508075436 50 0 2.0 2.0 0.00 0.00 0.00 92 1033.7
20260508074933 50 354 1.0 2.0 0.00 0.00 0.00 92 1033.6
20260508074431 50 0 1.0 2.0 0.00 0.00 0.00 91 1033.8
20260508073927 50 0 0.0 2.0 0.00 0.00 0.00 90 1033.7
20260508073425 50 353 0.0 2.0 0.00 0.00 0.00 91 1033.8
20260508072922 50 356 2.0 2.0 0.00 0.00 0.00 89 1033.7
20260508072418 50 352 0.0 1.0 0.00 0.00 0.00 90 1033.7
20260508071916 50 6 1.0 3.0 0.00 0.00 0.00 91 1033.9
20260508071414 50 15 0.0 1.0 0.00 0.00 0.00 92 1033.8
20260508070911 50 353 2.0 2.0 0.00 0.00 0.00 92 1033.7
20260508070409 50 356 2.0 2.0 0.00 0.00 0.00 92 1034.0
20260508065906 50 355 1.0 3.0 0.00 0.00 0.00 90 1033.7
20260508065404 50 0 2.0 2.0 0.00 0.00 0.00 90 1033.7
20260508064902 51 0 1.0 2.0 0.00 0.00 0.00 90 1033.8
20260508064359 51 353 1.0 2.0 0.00 0.00 0.00 87 1033.9
20260508063857 51 7 1.0 2.0 0.00 0.00 0.00 85 1034.0
20260508063354 51 26 0.0 1.0 0.00 0.00 0.00 87 1033.8
20260508062852 52 337 0.0 2.0 0.00 0.00 0.00 89 1034.0
20260508062349 52 0 0.0 2.0 0.00 0.00 0.00 84 1033.8
20260508061846 53 0 0.0 2.0 0.00 0.00 0.00 80 1034.0
20260508061343 52 8 0.0 1.0 0.00 0.00 0.00 79 1033.8
20260508060839 52 14 0.0 1.0 0.00 0.00 0.00 82 1034.0
20260508060338 51 14 0.0 1.0 0.00 0.00 0.00 85 1034.2
20260508055832 51 0 0.0 2.0 0.00 0.00 0.00 88 1034.3
20260508055330 53 344 2.0 2.0 0.00 0.00 0.00 88 1033.9
20260508054826 53 23 0.0 0.0 0.00 0.00 0.00 76 1034.0
20260508054324 52 23 0.0 0.0 0.00 0.00 0.00 82 1034.2
20260508053821 52 8 0.0 0.0 0.00 0.00 0.00 85 1034.3
20260508053318 53 0 0.0 0.0 0.00 0.00 0.00 87 1034.0
20260508052815 53 0 0.0 1.0 0.00 0.00 0.00 83 1033.9
20260508052312 54 0 0.0 1.0 0.00 0.00 0.00 76 1034.3
20260508051809 54 352 0.0 0.0 0.00 0.00 0.00 73 1034.2
20260508051304 53 352 0.0 0.0 0.00 0.00 0.00 78 1034.3
20260508050801 52 0 0.0 0.0 0.00 0.00 0.00 84 1034.3
20260508050258 52 0 0.0 2.0 0.00 0.00 0.00 91 1034.3
20260508045753 53 0 2.0 3.0 0.00 0.00 0.00 94 1033.9
20260508045251 53 7 1.0 1.0 0.00 0.00 0.00 93 1033.7
20260508044749 53 0 1.0 1.0 0.00 0.00 0.00 93 1033.8
20260508044245 53 15 0.0 1.0 0.00 0.00 0.00 94 1034.0
20260508043741 53 8 0.0 1.0 0.00 0.00 0.00 94 1033.8
20260508043239 53 352 0.0 3.0 0.00 0.00 0.00 94 1033.7
20260508042735 53 11 1.0 1.0 0.00 0.00 0.00 95 1033.6
20260508042233 53 0 1.0 3.0 0.00 0.00 0.00 94 1033.8
20260508041729 54 0 2.0 2.0 0.00 0.00 0.00 92 1033.9
20260508041226 54 14 0.0 1.0 0.00 0.00 0.00 89 1033.9
20260508040723 54 8 0.0 0.0 0.00 0.00 0.00 89 1033.7
20260508040220 54 8 0.0 0.0 0.00 0.00 0.00 91 1033.5
20260508035717 54 8 0.0 1.0 0.00 0.15 0.15 92 1033.9
20260508035215 53 23 0.0 0.0 0.00 0.15 0.15 92 1033.5
20260508034711 53 15 0.0 1.0 0.00 0.15 0.15 93 1033.5
20260508034209 53 0 0.0 0.0 0.00 0.15 0.15 94 1033.5
20260508033705 53 0 1.0 2.0 0.00 0.15 0.15 95 1033.5
20260508033204 53 8 0.0 1.0 0.00 0.15 0.15 96 1033.4
20260508032701 53 0 2.0 2.0 0.00 0.15 0.15 96 1033.7
20260508032158 53 0 2.0 2.0 0.00 0.15 0.15 96 1033.7
20260508031654 53 352 2.0 3.0 0.00 0.15 0.15 97 1033.5
20260508031151 53 352 3.0 3.0 0.00 0.15 0.15 96 1033.7
20260508030647 53 355 3.0 3.0 0.00 0.15 0.15 96 1033.7
20260508030145 53 0 3.0 3.0 0.00 0.15 0.15 95 1033.4
20260508025641 53 0 0.0 1.0 0.00 0.15 0.15 95 1033.3
20260508025138 54 0 0.0 1.0 0.00 0.15 0.15 95 1033.1
20260508024634 54 18 1.0 2.0 0.00 0.15 0.15 94 1033.2
20260508024132 54 157 0.0 0.0 0.00 0.15 0.15 93 1033.2
20260508023628 55 159 2.0 2.0 0.00 0.15 0.15 91 1033.2
20260508023126 55 0 0.0 0.0 0.00 0.15 0.15 91 1033.2
20260508022621 55 0 0.0 0.0 0.00 0.15 0.15 91 1033.3
20260508022119 55 0 1.0 1.0 0.00 0.15 0.15 91 1033.2
20260508021614 55 81 0.0 0.0 0.00 0.15 0.15 92 1033.1
20260508021110 56 81 0.0 1.0 0.00 0.15 0.15 91 1033.4
20260508020608 56 23 0.0 0.0 0.00 0.15 0.15 90 1033.0
20260508020105 56 23 0.0 1.0 0.00 0.15 0.15 89 1032.9
20260508015603 56 0 0.0 0.0 0.00 0.15 0.15 90 1032.5
20260508015059 56 0 0.0 0.0 0.00 0.15 0.15 89 1032.5
20260508014555 56 0 1.0 2.0 0.00 0.15 0.15 86 1032.5
20260508014052 56 352 0.0 1.0 0.00 0.15 0.15 87 1032.4
20260508013548 56 5 2.0 3.0 0.00 0.15 0.15 89 1032.5
20260508013045 56 342 1.0 2.0 0.00 0.15 0.15 86 1032.4
20260508012543 56 348 1.0 2.0 0.00 0.15 0.15 87 1032.1
20260508012040 56 0 2.0 2.0 0.00 0.15 0.15 86 1032.3
20260508011538 55 0 2.0 2.0 0.00 0.15 0.15 85 1032.1
20260508011035 55 354 1.0 2.0 0.00 0.15 0.15 85 1032.1
20260508010532 55 0 0.0 2.0 0.00 0.15 0.15 86 1032.2
20260508010029 56 5 2.0 2.0 0.00 0.15 0.15 86 1031.8
20260508005526 55 0 0.0 3.0 0.00 0.15 0.15 89 1032.2
20260508005023 55 351 2.0 2.0 0.00 0.15 0.15 88 1032.1
20260508004519 56 7 1.0 1.0 0.00 0.15 0.15 88 1032.1
20260508004015 55 0 1.0 2.0 0.00 0.15 0.15 89 1031.9
20260508003512 56 356 2.0 2.0 0.00 0.15 0.15 90 1031.7
20260508003010 56 0 0.0 2.0 0.00 0.15 0.15 90 1031.6
20260508002505 56 4 2.0 2.0 0.00 0.15 0.15 89 1031.5
20260508002003 57 0 2.0 2.0 0.00 0.15 0.15 89 1031.4
20260508001458 57 0 2.0 2.0 0.00 0.15 0.15 89 1031.3
20260508000955 57 0 3.0 3.0 0.00 0.15 0.15 90 1031.4
20260508000450 58 348 2.0 3.0 0.00 0.15 0.15 90 1031.4
20260507235948 59 350 2.0 2.0 0.00 0.15 0.15 90 1031.4
20260507235445 59 0 0.0 1.0 0.00 0.15 0.15 87 1031.4
20260507234942 59 352 0.0 1.0 0.00 0.15 0.15 83 1031.4
20260507234439 59 8 0.0 0.0 0.00 0.15 0.15 79 1031.2
20260507233935 59 8 0.0 0.0 0.00 0.15 0.15 79 1031.4
20260507233432 60 8 0.0 0.0 0.00 0.15 0.15 80 1031.4
20260507232931 60 352 0.0 0.0 0.00 0.15 0.15 79 1031.5
20260507232426 60 352 0.0 0.0 0.00 0.15 0.15 81 1031.3
20260507231924 61 352 0.0 0.0 0.00 0.15 0.15 80 1031.4
20260507231420 61 349 0.0 2.0 0.00 0.15 0.15 80 1031.5
20260507230917 60 0 0.0 1.0 0.00 0.15 0.15 79 1031.6
20260507230415 61 18 0.0 2.0 0.00 0.15 0.15 77 1031.4
20260507225914 63 26 0.0 0.0 0.00 0.15 0.15 76 1031.6
20260507225411 64 0 0.0 0.0 0.00 0.15 0.15 75 1031.5
20260507224907 64 15 2.0 3.0 0.00 0.15 0.15 70 1031.4
20260507224403 64 21 2.0 3.0 0.00 0.15 0.15 70 1031.3
20260507223900 64 28 2.0 3.0 0.00 0.15 0.15 69 1031.5
20260507223356 64 145 1.0 2.0 0.00 0.15 0.15 67 1031.8
20260507222854 65 0 0.0 2.0 0.00 0.15 0.15 70 1031.6
20260507222349 65 353 1.0 2.0 0.00 0.15 0.15 69 1031.7
20260507221847 65 57 2.0 3.0 0.00 0.15 0.15 68 1031.6
20260507221343 66 114 0.0 2.0 0.00 0.15 0.15 65 1031.7
20260507220839 64 54 1.0 3.0 0.00 0.15 0.15 72 1031.7
20260507220338 64 35 3.0 3.0 0.00 0.15 0.15 73 1031.3
20260507215833 64 21 2.0 4.0 0.00 0.15 0.15 72 1031.4
20260507215331 64 53 2.0 4.0 0.00 0.15 0.15 70 1031.4
20260507214828 64 11 2.0 2.0 0.00 0.15 0.15 74 1031.2
20260507214326 66 26 1.0 3.0 0.00 0.15 0.15 71 1031.3
20260507213820 66 5 0.0 3.0 0.00 0.15 0.15 74 1031.4
20260507213317 64 24 2.0 5.0 0.00 0.15 0.15 74 1031.4
20260507212814 65 0 2.0 2.0 0.00 0.15 0.15 75 1031.3
20260507212310 64 42 3.0 6.0 0.00 0.15 0.15 76 1031.2
20260507211806 63 356 2.0 4.0 0.00 0.15 0.15 78 1031.2
20260507211303 62 14 1.0 3.0 0.00 0.15 0.15 84 1031.1
20260507210800 61 345 0.0 0.0 0.00 0.15 0.15 84 1031.1
20260507210257 60 26 2.0 3.0 0.00 0.15 0.15 83 1031.2
20260507205753 60 346 0.0 2.0 0.00 0.15 0.15 86 1031.1
20260507205251 60 5 1.0 2.0 0.00 0.15 0.15 85 1031.2
20260507204746 60 353 1.0 1.0 0.00 0.15 0.15 85 1031.2
20260507204245 60 0 0.0 0.0 0.00 0.15 0.15 84 1031.1
20260507203742 60 0 0.0 0.0 0.00 0.15 0.15 82 1031.0
20260507203239 61 346 1.0 1.0 0.00 0.15 0.15 79 1030.9
20260507202735 62 76 0.0 5.0 0.00 0.15 0.15 82 1031.0
20260507202232 62 337 2.0 2.0 0.00 0.15 0.15 82 1030.9
20260507201727 62 337 0.0 1.0 0.00 0.15 0.15 84 1031.1
20260507201224 60 352 0.0 0.0 0.00 0.15 0.15 82 1031.0
20260507200720 59 23 0.0 1.0 0.00 0.15 0.15 85 1031.2
20260507200216 59 0 0.0 0.0 0.00 0.15 0.15 87 1031.2
20260507195713 58 180 0.0 0.0 0.00 0.15 0.15 86 1031.2
20260507195210 59 180 0.0 0.0 0.00 0.15 0.15 87 1031.4
20260507194707 60 180 0.0 0.0 0.00 0.15 0.15 88 1031.4
20260507194203 60 180 0.0 0.0 0.00 0.15 0.15 88 1031.4
20260507193700 60 180 0.0 0.0 0.00 0.15 0.15 87 1031.6
20260507193157 60 0 0.0 2.0 0.00 0.15 0.15 87 1031.7
20260507192652 59 180 0.0 0.0 0.00 0.15 0.15 88 1031.6
20260507192150 59 180 0.0 1.0 0.00 0.15 0.15 88 1031.4
20260507191645 58 352 0.0 0.0 0.00 0.15 0.15 89 1031.5
20260507191142 58 8 0.0 0.0 0.00 0.15 0.15 92 1031.4
20260507190639 59 0 0.0 1.0 0.00 0.15 0.15 95 1031.3
20260507190138 57 346 0.0 2.0 0.00 0.15 0.15 96 1031.5
20260507185636 57 194 0.0 1.0 0.00 0.15 0.15 97 1031.6
20260507185132 56 172 0.0 2.0 0.00 0.15 0.15 99 1031.3
20260507184630 55 180 0.0 2.0 0.00 0.15 0.15 99 1031.6
20260507184128 56 180 0.0 2.0 0.00 0.15 0.15 99 1031.4
20260507183624 56 165 0.0 1.0 0.00 0.15 0.15 99 1031.6
20260507183121 55 165 0.0 0.0 0.00 0.15 0.15 99 1031.7
20260507182618 56 165 1.0 2.0 0.00 0.15 0.15 99 1031.3
20260507182114 55 23 1.0 2.0 0.00 0.15 0.15 99 1031.8
20260507181611 54 157 0.0 0.0 0.00 0.15 0.15 99 1031.9
20260507181107 55 160 1.0 1.0 0.00 0.15 0.15 99 1031.8
20260507180603 54 15 0.0 1.0 0.00 0.15 0.15 99 1031.8
20260507180101 53 151 0.0 1.0 0.00 0.15 0.15 99 1031.8
20260507175556 53 160 0.0 1.0 0.00 0.15 0.15 99 1031.9
20260507175054 54 180 0.0 0.0 0.00 0.15 0.15 99 1032.1
20260507174551 54 0 0.0 0.0 0.00 0.15 0.15 99 1032.1
20260507174049 54 160 0.0 0.0 0.00 0.15 0.15 99 1032.3
20260507173545 53 160 0.0 0.0 0.00 0.15 0.15 99 1032.2
20260507173043 53 160 0.0 0.0 0.00 0.15 0.15 99 1032.4
20260507172538 53 160 0.0 1.0 0.00 0.15 0.15 99 1032.4